1506794400.36,749,17.06,74198.0,-1.97,-40.73,-40.59,0,*5D
1506794401.58,750,17.06,74198.8,-1.97,-40.41,-40.53,0,*5E
1506794402.79,751,17.06,74196.3,-1.97,-40.79,-40.73,0,*56
1506794404.04,752,17.06,74200.5,-1.97,-40.41,-40.41,0,*5F
1506794405.23,753,17.06,74196.3,-1.97,-40.03,-40.15,0,*59
1506794406.44,754,17.06,74198.0,-1.97,-40.59,-40.53,0,*53
1506794407.66,755,17.06,74200.8,-1.97,-40.35,-40.41,0,*5B
1506794408.89,756,17.06,74196.5,-1.95,-40.21,-40.35,0,*5C
1506794410.17,757,17.06,74198.8,-1.95,-40.41,-40.41,0,*58
1506794411.45,758,17.06,74200.0,-1.95,-40.41,-40.41,0,*57
1506794412.72,759,17.06,74198.0,-1.95,-40.59,-40.41,0,*5F
1506794413.96,760,17.06,74200.8,-1.97,-40.59,-40.41,0,*57
1506794415.18,761,17.06,74198.5,-1.97,-40.41,-40.53,0,*5C
1506794416.39,762,17.06,74198.3,-1.95,-40.53,-40.35,0,*5E
1506794417.6,763,17.06,74200.8,-1.97,-40.53,-40.59,0,*57
1506794418.85,764,17.06,74200.0,-1.95,-40.59,-40.53,0,*52
1506794420.03,765,17.06,74196.3,-1.97,-40.53,-40.53,0,*5B
1506794421.25,766,17.06,74198.8,-1.95,-40.53,-40.53,0,*5A
1506794422.49,767,17.06,74200.3,-1.95,-40.35,-40.41,0,*58
1506794423.77,768,17.06,74200.3,-1.95,-40.41,-40.41,0,*54
1506794425.01,769,17.06,74200.8,-1.95,-40.53,-40.41,0,*56
1506794426.26,770,17.06,74196.5,-1.95,-40.41,-40.53,0,*5E
1506794427.45,771,17.06,74200.0,-1.93,-40.47,-40.47,0,*5A
1506794428.7,772,17.06,74196.3,-1.95,-40.35,-40.41,0,*5C
1506794429.94,773,17.06,74200.3,-1.95,-40.53,-40.59,0,*54
1506794431.13,774,17.06,74200.3,-1.93,-40.47,-40.53,0,*5A
1506794432.32,775,17.06,74198.5,-1.93,-40.53,-40.53,0,*5E
1506794433.5,776,17.06,74202.8,-1.93,-40.53,-40.47,0,*58
1506794434.78,777,17.06,74198.8,-1.95,-40.41,-40.41,0,*5A
1506794436.02,778,17.06,74198.3,-1.95,-40.79,-40.73,0,*5F
1506794437.21,779,17.06,74196.3,-1.93,-40.73,-40.65,0,*55
1506794438.42,780,17.06,74198.0,-1.93,-40.73,-40.79,0,*5E
1506794439.64,781,17.06,74198.0,-1.93,-40.79,-40.91,0,*53
1506794440.83,782,17.06,74198.0,-1.93,-40.73,-40.73,0,*56
1506794442.01,783,17.06,74198.8,-1.93,-40.53,-40.65,0,*52
1506794443.2,784,17.06,74202.5,-1.93,-40.35,-40.35,0,*50
1506794444.39,785,17.06,74198.5,-1.93,-40.65,-40.53,0,*54
1506794445.57,786,17.06,74198.8,-1.93,-40.53,-40.53,0,*52
1506794446.79,787,17.06,74198.8,-1.91,-40.35,-40.35,0,*51
1506794447.98,788,17.06,74198.5,-1.93,-40.53,-40.53,0,*5C
1506794449.19,789,17.06,74196.0,-1.91,-40.73,-40.65,0,*58
1506794450.41,790,17.06,74196.8,-1.91,-40.53,-40.53,0,*57
1506794451.62,791,17.06,74196.5,-1.91,-40.53,-40.53,0,*56
1506794452.81,792,17.06,74198.5,-1.93,-40.65,-40.65,0,*57
1506794454.02,793,17.06,74196.0,-1.93,-40.79,-40.65,0,*5B
1506794455.27,794,17.06,74200.0,-1.91,-40.09,-40.15,0,*5E
1506794456.45,795,17.06,74194.3,-1.93,-40.65,-40.65,0,*50
1506794457.64,796,17.06,74196.8,-1.93,-40.35,-40.47,0,*56
1506794458.85,797,17.06,74198.8,-1.93,-40.29,-40.35,0,*5F
1506794460.04,798,17.06,74196.8,-1.93,-40.53,-40.53,0,*5D
1506794461.23,799,17.06,74196.0,-1.93,-40.53,-40.53,0,*5C
1506794462.42,800,17.06,74196.0,-1.93,-40.35,-40.47,0,*56
1506794463.61,801,17.06,74198.3,-1.93,-40.47,-40.47,0,*52
1506794464.83,802,17.06,74198.0,-1.91,-40.47,-40.53,0,*56
1506794466.04,803,17.06,74200.3,-1.91,-40.47,-40.47,0,*52
1506794467.26,804,17.06,74196.3,-1.91,-40.47,-40.35,0,*50
1506794468.52,805,17.06,74196.3,-1.91,-40.29,-40.29,0,*54
1506794469.75,806,17.06,74198.8,-1.91,-40.15,-40.15,0,*57
1506794471.02,807,17.06,74200.5,-1.91,-40.29,-40.29,0,*56
1506794472.27,808,17.06,74198.8,-1.91,-40.15,-40.29,0,*56
1506794473.49,809,17.06,74200.5,-1.91,-40.47,-40.35,0,*5D
1506794474.74,810,17.06,74196.5,-1.91,-40.15,-40.29,0,*5F
1506794475.98,811,17.06,74196.0,-1.89,-40.29,-40.41,0,*56
1506794477.2,812,17.06,74198.8,-1.89,-40.47,-40.59,0,*54
1506794478.41,813,17.06,74198.0,-1.87,-40.53,-40.53,0,*54
1506794479.63,814,17.06,74200.3,-1.89,-40.65,-40.59,0,*52
1506794480.87,815,17.06,74196.0,-1.89,-40.59,-40.59,0,*5C
1506794482.12,816,17.06,74202.3,-1.89,-40.41,-40.29,0,*51
1506794483.37,817,17.06,74200.5,-1.89,-40.09,-40.29,0,*5C
1506794484.61,818,17.06,74196.8,-1.89,-40.41,-40.29,0,*5F
1506794485.83,819,17.06,74200.0,-1.89,-40.41,-40.47,0,*56
1506794487.1,820,17.06,74196.8,-1.87,-40.41,-40.41,0,*54
1506794488.35,821,17.06,74200.5,-1.89,-40.41,-40.41,0,*5B
1506794489.58,822,17.06,74198.5,-1.89,-40.47,-40.59,0,*57
1506794490.79,823,17.06,74196.3,-1.87,-40.35,-40.35,0,*57
1506794492.02,824,17.06,74200.5,-1.87,-40.53,-40.59,0,*5A
1506794493.21,825,17.06,74196.3,-1.89,-40.65,-40.73,0,*58
1506794494.43,826,17.06,74198.0,-1.89,-40.65,-40.59,0,*53
1506794495.61,827,17.06,74198.0,-1.89,-40.65,-40.65,0,*5D
1506794496.83,828,17.06,74198.3,-1.89,-40.03,-40.09,0,*58
1506794498.05,829,17.06,74196.0,-1.87,-40.03,-40.15,0,*5A
1506794499.29,830,17.06,74196.0,-1.87,-40.35,-40.21,0,*50
1506794500.52,831,17.06,74196.8,-1.89,-40.29,-40.29,0,*5A
1506794501.77,832,17.06,74196.0,-1.89,-40.41,-40.41,0,*59
1506794503.02,833,17.06,74196.5,-1.87,-40.15,-40.21,0,*51
1506794504.24,834,17.06,74200.0,-1.87,-40.35,-40.35,0,*51
1506794505.46,835,17.06,74198.5,-1.89,-40.47,-40.41,0,*58
1506794506.67,836,17.06,74200.0,-1.87,-40.35,-40.35,0,*53
1506794507.93,837,17.06,74198.8,-1.87,-40.21,-40.21,0,*52
1506794509.16,838,17.06,74200.3,-1.85,-40.21,-40.21,0,*5F
1506794510.41,839,17.06,74198.3,-1.85,-40.41,-40.41,0,*5E
1506794511.63,840,17.06,74196.0,-1.85,-40.35,-40.21,0,*55
1506794512.85,841,17.06,74196.8,-1.85,-40.41,-40.35,0,*52
1506794514.06,842,17.06,74200.0,-1.83,-40.47,-40.47,0,*54
1506794515.27,843,17.06,74196.5,-1.85,-39.97,-40.03,0,*50
1506794516.49,844,17.06,74196.3,-1.85,-40.21,-40.15,0,*53
1506794517.72,845,17.06,74200.8,-1.85,-40.21,-40.21,0,*55
1506794518.91,846,17.06,74198.5,-1.85,-40.35,-40.35,0,*56
1506794520.13,847,17.06,74198.5,-1.83,-40.47,-40.47,0,*51
1506794521.35,848,17.06,74198.5,-1.85,-40.59,-40.53,0,*52
1506794522.59,849,17.06,74198.8,-1.85,-40.59,-40.41,0,*50
1506794523.78,850,17.06,74200.8,-1.85,-40.53,-40.53,0,*51
1506794524.96,851,17.06,74198.5,-1.85,-40.35,-40.35,0,*50
1506794526.18,852,17.06,74200.0,-1.83,-40.35,-40.35,0,*55
1506794527.4,853,17.06,74200.3,-1.85,-40.59,-40.53,0,*58
1506794528.62,854,17.06,74202.0,-1.83,-40.53,-40.53,0,*53
1506794529.83,855,17.06,74202.0,-1.85,-40.65,-40.59,0,*5B
1506794531.04,856,17.06,74198.0,-1.85,-40.65,-40.59,0,*58
1506794532.32,857,17.06,74198.0,-1.83,-40.59,-40.59,0,*50
1506794533.56,858,17.06,74198.0,-1.85,-40.59,-40.59,0,*59
1506794534.81,859,17.06,74198.0,-1.85,-40.59,-40.59,0,*58
1506794536.01,860,17.06,74198.5,-1.85,-40.65,-40.79,0,*5F
1506794537.26,861,17.06,74198.3,-1.85,-40.59,-40.59,0,*53
1506794538.5,862,17.06,74198.5,-1.83,-40.47,-40.29,0,*5E
1506794539.72,863,17.06,74200.3,-1.85,-40.41,-40.53,0,*52
1506794540.94,864,17.06,74198.0,-1.83,-40.53,-40.47,0,*55
1506794542.15,865,17.06,74196.8,-1.85,-40.53,-40.59,0,*5D
1506794543.4,866,17.06,74198.5,-1.83,-40.59,-40.73,0,*5A
1506794544.64,867,17.06,74200.5,-1.83,-40.59,-40.53,0,*59
1506794545.89,868,17.06,74196.3,-1.83,-40.73,-40.79,0,*56
1506794547.1,869,17.06,74196.8,-1.85,-40.59,-40.65,0,*54
1506794548.32,870,17.06,74200.0,-1.83,-40.53,-40.73,0,*57
1506794549.55,871,17.06,74198.8,-1.85,-40.79,-40.79,0,*52
1506794550.8,872,17.06,74200.0,-1.83,-40.59,-40.73,0,*5F
1506794552.07,873,17.06,74196.0,-1.83,-40.59,-40.59,0,*56
1506794553.29,874,17.06,74202.5,-1.83,-40.47,-40.35,0,*54
1506794554.54,875,17.06,74198.0,-1.85,-40.41,-40.41,0,*56
1506794555.79,876,17.06,74198.5,-1.85,-40.41,-40.41,0,*55
1506794556.97,877,17.06,74198.3,-1.85,-40.53,-40.53,0,*54
1506794558.24,878,17.06,74194.0,-1.83,-40.29,-40.29,0,*5D
1506794559.45,879,17.06,74198.8,-1.83,-40.53,-40.47,0,*59
1506794560.67,880,17.06,74198.5,-1.83,-40.47,-40.35,0,*5F
1506794561.89,881,17.06,74198.8,-1.83,-40.47,-40.35,0,*5E
1506794563.11,882,17.06,74196.5,-1.83,-40.47,-40.47,0,*58
1506794564.33,883,17.06,74196.8,-1.83,-40.47,-40.35,0,*5C
1506794565.55,884,17.06,74198.3,-1.83,-40.47,-40.53,0,*5B
1506794566.77,885,17.06,74200.5,-1.83,-40.53,-40.53,0,*5F
1506794568.04,886,17.06,74196.8,-1.83,-40.59,-40.59,0,*5C
1506794569.25,887,17.06,74202.0,-1.83,-40.53,-40.35,0,*5D
1506794570.5,888,17.06,74198.0,-1.83,-40.53,-40.59,0,*58
1506794571.74,889,17.06,74198.3,-1.83,-40.59,-40.73,0,*5B
1506794573.02,890,17.06,74198.8,-1.83,-40.59,-40.59,0,*5B
1506794574.26,891,17.06,74196.3,-1.85,-40.59,-40.59,0,*5C
1506794575.48,892,17.06,74196.0,-1.83,-40.53,-40.53,0,*59
1506794576.7,893,17.06,74198.0,-1.83,-40.47,-40.53,0,*5D
1506794577.92,894,17.06,74198.5,-1.83,-40.47,-40.53,0,*5A
1506794579.14,895,17.06,74198.5,-1.83,-40.53,-40.53,0,*5E
1506794580.36,896,17.06,74198.5,-1.83,-40.47,-40.35,0,*58
1506794581.6,897,17.06,74196.3,-1.83,-40.53,-40.59,0,*56
1506794582.85,898,17.06,74196.3,-1.83,-40.59,-40.73,0,*5B
1506794584.07,899,17.06,74198.0,-1.83,-40.35,-40.15,0,*50
1506794585.29,900,17.06,74194.5,-1.83,-40.47,-40.47,0,*53
1506794586.51,901,17.06,74198.5,-1.83,-40.53,-40.53,0,*52
1506794587.72,902,17.06,74194.8,-1.83,-40.53,-40.47,0,*54
1506794588.94,903,17.06,74196.0,-1.83,-40.53,-40.53,0,*50
1506794590.21,904,17.06,74196.8,-1.83,-40.59,-40.59,0,*57
1506794591.48,905,17.06,74196.5,-1.83,-40.59,-40.59,0,*56
1506794592.73,906,17.06,74198.8,-1.83,-40.53,-40.59,0,*5F
1506794593.95,907,17.06,74192.3,-1.83,-40.47,-40.47,0,*54
1506794595.16,908,17.06,74202.3,-1.83,-40.53,-40.53,0,*5B
1506794596.38,909,17.06,74198.5,-1.83,-40.53,-40.73,0,*58
1506794597.59,910,17.06,74196.5,-1.81,-40.59,-40.73,0,*58
1506794598.81,911,17.06,74196.8,-1.81,-40.73,-40.79,0,*5B
1506794600.04,912,17.06,74198.3,-1.81,-40.79,-40.79,0,*52
1506794601.31,913,17.06,74196.3,-1.83,-40.59,-40.79,0,*53
1506794602.55,914,17.06,74196.5,-1.83,-40.73,-40.79,0,*5C
1506794603.83,915,17.06,74200.8,-1.83,-40.59,-40.59,0,*57
1506794605.1,916,17.06,74196.3,-1.83,-40.59,-40.59,0,*54
1506794606.32,917,17.06,74196.8,-1.83,-40.47,-40.47,0,*55
1506794607.56,918,17.06,74200.5,-1.83,-40.53,-40.59,0,*50
1506794608.78,919,17.06,74198.5,-1.83,-40.73,-40.73,0,*5B
1506794610.03,920,17.06,74198.5,-1.83,-40.59,-40.73,0,*59
1506794611.25,921,17.06,74198.0,-1.83,-40.47,-40.47,0,*50
1506794612.46,922,17.06,74194.8,-1.83,-40.53,-40.47,0,*56
1506794613.64,923,17.06,74196.8,-1.81,-40.53,-40.73,0,*52
1506794614.86,924,17.06,74196.5,-1.81,-40.59,-40.73,0,*5F
1506794616.11,925,17.06,74198.0,-1.83,-40.59,-40.73,0,*5C
1506794617.38,926,17.06,74196.0,-1.83,-40.59,-40.59,0,*57
1506794618.62,927,17.06,74198.0,-1.83,-40.53,-40.59,0,*5C
1506794619.84,928,17.06,74198.3,-1.83,-40.47,-40.47,0,*59
1506794621.06,929,17.06,74196.8,-1.83,-40.53,-40.47,0,*5D
1506794622.3,930,17.06,74196.8,-1.83,-40.53,-40.59,0,*5A
1506794623.57,931,17.06,74196.8,-1.83,-40.59,-40.59,0,*51
1506794624.82,932,17.06,74196.5,-1.81,-40.59,-40.59,0,*50
1506794626.06,933,17.06,74196.3,-1.81,-40.59,-40.59,0,*51
1506794627.25,934,17.06,74198.5,-1.81,-40.53,-40.53,0,*56
1506794628.44,935,17.06,74198.0,-1.81,-40.73,-40.73,0,*57
1506794629.65,936,17.0,74192.0,-1.81,-40.73,-40.79,0,*5E
1506794630.87,937,17.06,74198.5,-1.81,-40.59,-40.73,0,*5D
1506794632.09,938,17.06,74198.0,-1.81,-40.79,-40.91,0,*5C
1506794633.33,939,17.06,74198.5,-1.81,-40.59,-40.59,0,*5B
1506794634.52,940,17.06,74198.0,-1.81,-40.47,-40.35,0,*50
1506794635.77,941,17.06,74194.8,-1.77,-40.41,-40.35,0,*5E
1506794636.99,942,17.06,74198.3,-1.81,-40.59,-40.53,0,*5D
1506794638.21,943,17.06,74196.8,-1.81,-40.79,-40.91,0,*50
1506794639.42,944,17.06,74196.3,-1.81,-40.73,-40.79,0,*5B
1506794640.63,945,17.06,74198.0,-1.81,-40.59,-40.73,0,*58
1506794641.82,946,17.06,74198.8,-1.81,-40.53,-40.35,0,*53
1506794643.1,947,17.06,74198.3,-1.77,-40.41,-40.59,0,*52
1506794644.32,948,17.06,74196.5,-1.81,-40.59,-40.53,0,*57
1506794645.54,949,17.06,74196.3,-1.81,-40.59,-40.53,0,*56
1506794646.72,950,17.06,74196.5,-1.81,-40.47,-40.35,0,*51
1506794647.94,951,17.06,74198.0,-1.81,-40.53,-40.59,0,*5F
1506794649.15,952,17.06,74196.5,-1.81,-40.73,-40.79,0,*5C
1506794650.42,953,17.06,74198.5,-1.77,-40.79,-40.79,0,*5E
1506794651.63,954,17.0,74194.5,-1.81,-40.59,-40.73,0,*58
1506794652.89,955,17.06,74198.3,-1.77,-40.41,-40.47,0,*5E
1506794654.1,956,17.06,74198.0,-1.81,-40.53,-40.59,0,*58
1506794655.29,957,17.06,74196.3,-1.81,-40.73,-40.73,0,*53
1506794656.5,958,17.06,74198.3,-1.81,-40.73,-40.79,0,*56
1506794657.75,959,17.0,74194.5,-1.81,-40.59,-40.59,0,*5D
1506794658.96,960,17.06,74198.0,-1.81,-40.73,-40.79,0,*5D
1506794660.18,961,17.06,74198.3,-1.77,-40.47,-40.47,0,*5F
1506794661.39,962,17.06,74198.3,-1.81,-40.73,-40.79,0,*5F
1506794662.61,963,17.0,74196.3,-1.81,-40.59,-40.53,0,*5E
1506794663.82,964,17.06,74198.3,-1.81,-40.73,-40.79,0,*59
1506794665.06,965,17.06,74196.0,-1.81,-40.59,-40.59,0,*52
1506794666.29,966,17.06,74198.3,-1.77,-40.35,-40.35,0,*58
1506794667.5,967,17.0,74196.0,-1.81,-40.59,-40.73,0,*58
1506794668.71,968,17.06,74196.8,-1.81,-40.79,-40.73,0,*55
1506794669.95,969,17.06,74196.0,-1.81,-40.91,-40.97,0,*58
1506794671.21,970,17.0,74196.0,-1.83,-40.79,-40.79,0,*54
1506794672.4,971,17.06,74196.5,-1.81,-40.73,-40.73,0,*57
1506794673.68,972,17.06,74196.8,-1.77,-40.41,-40.41,0,*5D
1506794674.92,973,17.06,74198.8,-1.81,-40.59,-40.59,0,*55
1506794676.14,974,17.06,74198.3,-1.81,-40.79,-40.73,0,*58
1506794677.39,975,17.06,74196.5,-1.77,-40.47,-40.59,0,*55
1506794678.58,976,17.0,74194.0,-1.81,-40.73,-40.73,0,*50
1506794679.8,977,17.0,74196.3,-1.81,-40.79,-40.91,0,*57
1506794680.99,978,17.06,74198.8,-1.81,-40.73,-40.91,0,*52
1506794682.21,979,17.0,74196.0,-1.81,-40.59,-40.73,0,*57
1506794683.44,980,17.0,74196.5,-1.81,-40.91,-40.97,0,*5F
1506794684.65,981,17.06,74198.3,-1.81,-40.73,-40.79,0,*52
1506794685.86,982,17.0,74196.8,-1.81,-40.73,-40.79,0,*51
1506794687.07,983,17.06,74196.5,-1.81,-40.73,-40.79,0,*50
1506794688.29,984,17.06,74196.0,-1.81,-40.73,-40.79,0,*57
1506794689.49,985,17.06,74198.8,-1.81,-40.91,-40.91,0,*5C
1506794690.71,986,17.06,74198.0,-1.81,-40.79,-40.91,0,*59
1506794691.93,987,17.0,74192.8,-1.81,-40.91,-40.79,0,*58
1506794693.16,988,17.06,74196.5,-1.81,-40.91,-40.97,0,*57
1506794694.35,989,17.0,74198.5,-1.81,-40.73,-40.73,0,*50
1506794695.56,990,17.0,74198.3,-1.81,-40.73,-40.79,0,*52
1506794696.76,991,17.06,74196.8,-1.81,-40.91,-40.91,0,*59
1506794698.01,992,17.0,74192.8,-1.81,-40.79,-40.97,0,*5A
1506794699.21,993,17.06,74198.8,-1.81,-40.91,-41.11,0,*52
1506794700.43,994,17.0,74194.5,-1.83,-41.11,-41.11,0,*5E
1506794701.68,995,17.06,74198.3,-1.83,-40.97,-41.11,0,*50
1506794702.93,996,17.06,74198.3,-1.83,-40.79,-40.91,0,*5A
1506794704.13,997,17.0,74196.3,-1.85,-40.65,-40.79,0,*56
1506794705.37,998,17.06,74196.0,-1.85,-40.79,-40.79,0,*54
1506794706.6,999,17.06,74198.0,-1.85,-40.79,-40.79,0,*55
1506794707.88,1000,17.06,74200.3,-1.83,-40.59,-40.59,0,*6B
1506794709.14,1001,17.06,74198.0,-1.83,-40.73,-40.59,0,*62
1506794710.37,1002,17.0,74198.0,-1.83,-40.73,-40.91,0,*65
1506794711.58,1003,17.0,74196.0,-1.85,-40.65,-40.79,0,*63
1506794712.81,1004,17.06,74198.5,-1.83,-40.47,-40.53,0,*6A
1506794714.06,1005,17.06,74196.0,-1.83,-40.53,-40.59,0,*64
1506794715.28,1006,17.0,74196.3,-1.83,-40.53,-40.73,0,*6F
1506794716.53,1007,17.06,74198.3,-1.83,-40.73,-40.79,0,*66
1506794717.78,1008,17.0,74196.5,-1.83,-40.59,-40.73,0,*6B
1506794719.03,1009,17.0,74196.5,-1.83,-40.53,-40.59,0,*68
1506794720.26,1010,17.0,74194.5,-1.83,-40.47,-40.53,0,*6F
1506794721.48,1011,17.0,74196.3,-1.83,-40.47,-40.47,0,*6B
1506794722.76,1012,17.06,74198.0,-1.83,-40.59,-40.59,0,*68
1506794724.04,1013,17.0,74196.3,-1.83,-40.59,-40.59,0,*69
1506794725.29,1014,17.06,74196.8,-1.83,-40.73,-40.79,0,*64
1506794726.53,1015,17.0,74194.0,-1.83,-40.73,-40.79,0,*65
1506794727.78,1016,17.0,74196.8,-1.83,-40.59,-40.73,0,*64
1506794729.05,1017,17.0,74196.0,-1.83,-40.79,-40.79,0,*6D
1506794730.33,1018,17.0,74196.8,-1.83,-40.59,-40.79,0,*60
1506794731.58,1019,17.0,74198.5,-1.83,-40.73,-40.79,0,*69
1506794732.82,1020,17.0,74198.8,-1.83,-40.53,-40.59,0,*63
1506794734.07,1021,17.0,74196.8,-1.83,-40.73,-40.79,0,*62
1506794735.35,1022,17.06,74198.0,-1.83,-40.59,-40.59,0,*6B
1506794736.63,1023,17.0,74198.0,-1.83,-40.59,-40.59,0,*6A
1506794737.9,1024,17.0,74196.3,-1.83,-40.59,-40.79,0,*6F
1506794739.16,1025,17.06,74196.5,-1.85,-40.85,-40.97,0,*69
1506794740.4,1026,17.0,74196.8,-1.83,-40.73,-40.79,0,*65
1506794741.65,1027,17.0,74196.5,-1.85,-40.79,-40.85,0,*6B
1506794742.92,1028,17.0,74194.5,-1.83,-40.91,-40.97,0,*67
1506794744.16,1029,17.0,74196.0,-1.83,-40.73,-40.79,0,*6A
1506794745.4,1030,17.0,74192.8,-1.83,-40.91,-40.91,0,*68
1506794746.67,1031,17.0,74198.5,-1.83,-40.91,-40.97,0,*6F
1506794747.92,1032,17.0,74196.0,-1.83,-40.91,-40.79,0,*6C
1506794749.17,1033,17.0,74198.5,-1.83,-40.73,-40.79,0,*61
1506794750.41,1034,17.0,74196.0,-1.85,-40.79,-40.79,0,*6A
1506794751.66,1035,17.0,74198.0,-1.83,-40.79,-40.91,0,*6B
1506794752.89,1036,17.0,74196.8,-1.85,-40.85,-41.03,0,*67
1506794754.1,1037,17.0,74198.8,-1.85,-41.03,-41.03,0,*69
1506794755.31,1038,17.0,74192.8,-1.85,-40.65,-40.79,0,*6B
1506794756.55,1039,17.0,74198.0,-1.85,-40.91,-40.97,0,*61
1506794757.77,1040,17.0,74198.3,-1.83,-41.11,-41.17,0,*69
1506794759.03,1041,17.0,74198.8,-1.85,-40.97,-40.97,0,*68
1506794760.27,1042,17.0,74196.5,-1.85,-40.79,-40.79,0,*6B
1506794761.48,1043,17.0,74194.3,-1.85,-40.65,-40.79,0,*67
1506794762.73,1044,17.0,74198.5,-1.85,-40.79,-40.85,0,*6E
1506794763.98,1045,17.0,74194.5,-1.85,-40.97,-40.97,0,*6C
1506794765.2,1046,17.0,74198.5,-1.85,-40.73,-40.79,0,*65
1506794766.41,1047,17.0,74196.3,-1.85,-41.03,-41.03,0,*6E
1506794767.67,1048,17.0,74198.0,-1.87,-41.03,-40.97,0,*6F
1506794768.92,1049,17.0,74196.5,-1.85,-40.85,-40.97,0,*63
1506794770.14,1050,17.0,74192.0,-1.85,-40.65,-40.85,0,*66
1506794771.41,1051,17.0,74196.5,-1.87,-40.79,-40.79,0,*6B
1506794772.6,1052,17.0,74196.3,-1.85,-40.65,-40.65,0,*6A
1506794773.84,1053,17.0,74192.5,-1.87,-40.79,-40.65,0,*64
1506794775.05,1054,17.0,74194.0,-1.85,-40.21,-40.35,0,*69
1506794776.3,1055,17.0,74194.3,-1.85,-40.59,-40.41,0,*64
1506794777.55,1056,17.0,74194.8,-1.85,-40.85,-40.85,0,*6E
1506794778.77,1057,17.0,74194.5,-1.85,-40.65,-40.59,0,*60
1506794780.03,1058,17.0,74196.3,-1.83,-40.91,-40.85,0,*63
1506794781.28,1059,17.0,74196.3,-1.85,-40.59,-40.59,0,*61
1506794782.5,1060,17.0,74196.5,-1.85,-40.59,-40.65,0,*64
1506794783.72,1061,17.0,74198.3,-1.85,-40.53,-40.59,0,*60
1506794784.94,1062,17.0,74194.8,-1.85,-40.53,-40.59,0,*63
1506794786.16,1063,17.0,74192.5,-1.83,-40.53,-40.47,0,*6B
1506794787.38,1064,17.0,74192.5,-1.85,-40.35,-40.41,0,*6C
1506794788.66,1065,17.0,74194.0,-1.83,-40.29,-40.29,0,*68
1506794789.91,1066,17.0,74194.3,-1.83,-40.35,-40.29,0,*66
1506794791.13,1067,17.0,74196.3,-1.83,-40.53,-40.53,0,*6A
1506794792.36,1068,17.0,74194.8,-1.83,-40.35,-40.35,0,*65
1506794793.58,1069,17.0,74198.0,-1.83,-40.47,-40.35,0,*61
1506794794.83,1070,17.0,74192.5,-1.83,-40.35,-40.29,0,*61
1506794796.05,1071,17.0,74198.0,-1.83,-40.35,-40.35,0,*6D
1506794797.28,1072,17.0,74194.3,-1.83,-40.35,-40.47,0,*6B
1506794798.5,1073,17.0,74196.5,-1.83,-40.53,-40.47,0,*6A
1506794799.75,1074,17.0,74196.5,-1.83,-40.53,-40.59,0,*62
1506794801.02,1075,17.0,74194.3,-1.83,-40.59,-40.59,0,*69
1506794802.25,1076,17.0,74192.8,-1.77,-40.47,-40.47,0,*61
1506794803.45,1077,17.0,74196.3,-1.81,-40.73,-40.91,0,*65
1506794804.64,1078,17.0,74194.5,-1.81,-40.53,-40.47,0,*63
1506794805.87,1079,17.0,74198.8,-1.81,-40.73,-40.59,0,*6F
1506794807.09,1080,17.0,74196.5,-1.83,-40.53,-40.53,0,*63
1506794808.34,1081,17.0,74192.0,-1.83,-40.53,-40.59,0,*68
1506794809.53,1082,17.0,74194.0,-1.81,-40.73,-40.73,0,*63
1506794810.76,1083,17.0,74196.3,-1.83,-40.47,-40.47,0,*60
1506794811.98,1084,17.0,74194.0,-1.83,-40.53,-40.53,0,*67
1506794813.2,1085,17.0,74192.5,-1.83,-40.53,-40.47,0,*63
1506794814.45,1086,17.0,74194.8,-1.83,-40.53,-40.59,0,*6F
1506794815.64,1087,17.0,74192.3,-1.81,-40.53,-40.53,0,*66
1506794816.86,1088,17.0,74192.3,-1.81,-40.53,-40.59,0,*63
1506794818.08,1089,17.0,74196.5,-1.81,-40.73,-40.79,0,*62
1506794819.3,1090,17.0,74194.0,-1.81,-40.59,-40.73,0,*68
1506794820.59,1091,17.0,74194.8,-1.77,-40.41,-40.41,0,*68
1506794821.81,1092,17.0,74194.0,-1.81,-40.53,-40.59,0,*68
1506794823.0,1093,17.0,74194.8,-1.81,-40.53,-40.53,0,*63
1506794824.2,1094,17.0,74194.8,-1.81,-40.47,-40.47,0,*64
1506794825.48,1095,17.0,74196.0,-1.77,-40.59,-40.59,0,*6C
1506794826.7,1096,17.0,74196.8,-1.81,-40.73,-40.79,0,*6C
1506794827.89,1097,17.0,74194.8,-1.81,-40.73,-40.73,0,*67
1506794829.09,1098,17.0,74194.8,-1.81,-40.47,-40.47,0,*68
1506794830.35,1099,17.0,74196.3,-1.77,-40.41,-40.47,0,*66
1506794831.57,1100,17.0,74196.5,-1.77,-40.47,-40.47,0,*61
1506794832.77,1101,17.0,74196.0,-1.81,-40.53,-40.53,0,*69
1506794833.96,1102,17.0,74196.3,-1.81,-40.53,-40.47,0,*6F
1506794835.21,1103,17.0,74194.3,-1.77,-40.41,-40.35,0,*61
1506794836.47,1104,17.0,74194.3,-1.77,-40.41,-40.35,0,*66
1506794837.76,1105,17.0,74192.5,-1.77,-40.41,-40.41,0,*64
1506794839.02,1106,17.0,74198.3,-1.77,-40.47,-40.41,0,*61
1506794840.27,1107,17.0,74194.0,-1.77,-40.41,-40.35,0,*65
1506794841.53,1108,17.0,74194.8,-1.77,-40.41,-40.47,0,*6F
1506794842.76,1109,17.0,74192.5,-1.77,-40.47,-40.47,0,*68
1506794844.01,1110,17.0,74192.3,-1.81,-40.41,-40.59,0,*60
1506794845.24,1111,17.0,74192.5,-1.81,-40.59,-40.53,0,*62
1506794846.46,1112,17.0,74194.3,-1.81,-40.35,-40.29,0,*66
1506794847.68,1113,17.0,74198.3,-1.77,-40.35,-40.35,0,*63
1506794848.96,1114,17.0,74194.0,-1.77,-40.21,-40.21,0,*64
1506794850.21,1115,17.0,74194.5,-1.77,-40.35,-40.21,0,*60
1506794851.5,1116,17.0,74194.0,-1.77,-40.41,-40.41,0,*66
1506794852.73,1117,17.0,74196.0,-1.77,-40.35,-40.35,0,*67
1506794853.98,1118,17.0,74192.5,-1.77,-40.59,-40.65,0,*67
1506794855.25,1119,17.0,74194.3,-1.77,-40.21,-40.21,0,*69
1506794856.48,1120,17.0,74196.5,-1.75,-40.41,-40.47,0,*67
1506794857.71,1121,17.0,74196.0,-1.77,-40.35,-40.35,0,*62
1506794858.97,1122,17.0,74194.8,-1.77,-40.41,-40.47,0,*67
1506794860.25,1123,17.0,74192.8,-1.77,-40.59,-40.59,0,*60
1506794861.45,1124,17.0,74194.5,-1.75,-40.47,-40.65,0,*65
1506794862.67,1125,17.0,74194.3,-1.73,-40.73,-40.73,0,*62
1506794863.9,1126,17.0,74192.8,-1.75,-40.65,-40.85,0,*69
1506794865.16,1127,17.0,74192.5,-1.75,-40.59,-40.59,0,*66
1506794866.41,1128,17.0,74194.5,-1.77,-40.35,-40.21,0,*6E
1506794867.64,1129,17.0,74194.3,-1.77,-40.35,-40.35,0,*6A
1506794868.9,1130,17.0,74196.5,-1.77,-40.47,-40.59,0,*6D
1506794870.19,1131,17.0,74198.0,-1.77,-40.41,-40.41,0,*63
1506794871.42,1132,17.0,74198.3,-1.75,-40.41,-40.47,0,*64
1506794872.65,1133,17.0,74198.3,-1.75,-40.41,-40.47,0,*65
1506794873.9,1134,17.0,74194.5,-1.75,-40.59,-40.59,0,*64
1506794875.12,1135,17.0,74192.5,-1.75,-40.65,-40.79,0,*68
1506794876.37,1136,17.0,74192.8,-1.73,-40.53,-40.59,0,*6A
1506794877.6,1137,17.0,74198.5,-1.75,-40.47,-40.59,0,*68
1506794878.8,1138,17.0,74192.5,-1.75,-40.65,-40.65,0,*68
1506794880.0,1139,17.0,74192.8,-1.75,-40.47,-40.65,0,*69
1506794881.19,1140,17.0,74196.0,-1.75,-40.65,-40.65,0,*67
1506794882.46,1141,17.0,74192.3,-1.75,-40.41,-40.41,0,*66
1506794883.66,1142,17.0,74196.5,-1.75,-40.47,-40.47,0,*65
1506794884.89,1143,17.0,74194.3,-1.75,-40.47,-40.59,0,*6B
1506794886.17,1144,17.0,74196.0,-1.73,-40.41,-40.59,0,*6C
1506794887.39,1145,17.0,74196.0,-1.73,-40.53,-40.53,0,*64
1506794888.65,1146,17.0,74194.3,-1.75,-40.59,-40.59,0,*61
1506794889.87,1147,17.0,74194.5,-1.75,-40.65,-40.79,0,*6D
1506794891.12,1148,17.0,74194.8,-1.75,-40.59,-40.59,0,*6F
1506794892.32,1149,17.0,74196.8,-1.75,-40.47,-40.47,0,*6E
1506794893.54,1150,17.0,74192.3,-1.75,-40.21,-40.35,0,*63
1506794894.79,1151,17.0,74196.5,-1.73,-40.53,-40.59,0,*6B
1506794895.99,1152,17.0,74194.3,-1.75,-40.47,-40.65,0,*64
1506794897.22,1153,17.0,74194.5,-1.75,-40.59,-40.47,0,*6A
1506794898.45,1154,17.0,74194.3,-1.75,-40.47,-40.41,0,*64
1506794899.71,1155,17.0,74194.5,-1.75,-40.41,-40.41,0,*63
1506794900.97,1156,17.0,74194.8,-1.75,-40.41,-40.41,0,*60
1506794902.17,1157,17.0,74194.5,-1.75,-40.35,-40.35,0,*61
1506794903.37,1158,17.0,74194.8,-1.75,-40.47,-40.47,0,*6E
1506794904.59,1159,17.0,74194.3,-1.73,-40.53,-40.53,0,*69
1506794905.81,1160,17.0,74196.0,-1.75,-40.65,-40.79,0,*68
1506794907.1,1161,17.0,74192.8,-1.73,-40.41,-40.59,0,*6B
1506794908.35,1162,17.0,74198.0,-1.75,-40.59,-40.59,0,*67